Location: Houston
(29.7630°N, 95.3630°W)
Time: 08:23:53
(UTC-06:00)

ISS - All Passes

Search period start: 07 December 2016 00:00
Search period end: 17 December 2016 00:00
Orbit: 401 x 410 km, 51.6° (Epoch: 07 December)

Date Brightness Start Highest point End Pass type
(mag) Time Alt. Az. Time Alt. Az. Time Alt. Az.
07 Dec - 14:47:38 10° SSW 14:50:49 51° SE 14:54:00 10° NE daylight
07 Dec - 16:26:04 10° WNW 16:27:31 12° NW 16:28:59 10° N daylight
07 Dec - 22:56:30 10° NNW 22:59:39 41° NE 23:02:47 10° ESE night (unlit)
08 Dec - 00:34:44 10° WSW 00:35:49 11° SW 00:36:54 10° SW night (unlit)
08 Dec - 13:56:21 10° S 13:58:57 22° SE 14:01:33 10° ENE daylight
08 Dec - 15:32:42 10° W 15:35:20 22° NW 15:37:59 10° NNE daylight
08 Dec - 22:05:00 10° NNW 22:07:33 20° NE 22:10:07 10° E night (unlit)
08 Dec - 23:41:14 10° WNW 23:43:59 25° SW 23:46:45 10° S night (unlit)
09 Dec - 14:40:06 10° WSW 14:43:15 45° NW 14:46:25 10° NNE daylight
09 Dec - 21:14:08 10° NNE 21:15:21 12° NE 21:16:34 10° NE night (unlit)
09 Dec - 22:48:51 10° NW 22:52:06 59° SW 22:55:20 10° SSE night (unlit)
10 Dec - 13:48:00 10° SW 13:51:14 74° SE 13:54:31 10° NE daylight
10 Dec - 21:56:51 10° NW 22:00:06 56° NE 22:03:21 10° SE night (unlit)
11 Dec - 12:56:26 10° SSW 12:59:18 30° SE 13:02:13 10° ENE daylight
11 Dec - 14:33:32 10° W 14:35:49 17° NW 14:38:07 10° N daylight
11 Dec - 21:05:10 10° NNW 21:08:01 26° NE 21:10:51 10° E night (unlit)
11 Dec - 22:41:59 10° W 22:44:21 18° SW 22:46:42 10° S night (unlit)
12 Dec - 12:05:45 10° SSE 12:07:26 13° SE 12:09:08 10° E daylight
12 Dec - 13:40:40 10° WSW 13:43:39 33° NW 13:46:40 10° NNE daylight
12 Dec - 20:13:55 10° N 20:15:49 14° NE 20:17:42 10° ENE night (unlit)
12 Dec - 21:49:18 10° WNW 21:52:26 41° SW 21:55:33 10° SSE night (unlit)
13 Dec - 12:48:19 10° SW 12:51:35 78° NW 12:54:50 10° NE daylight
13 Dec - 20:57:08 10° NW 21:00:26 79° NE 21:03:43 10° SE night (unlit)
14 Dec - 11:56:30 10° SSW 11:59:34 41° SE 12:02:40 10° ENE daylight
14 Dec - 13:34:22 10° WNW 13:36:12 14° NW 13:38:02 10° N daylight
14 Dec - 20:05:17 10° NNW 20:08:20 34° NE 20:11:22 10° ESE night (unlit)
14 Dec - 21:42:48 10° W 21:44:33 14° SW 21:46:18 10° SSW night (unlit)
15 Dec - 11:05:20 10° S 11:07:38 18° SE 11:09:57 10° E daylight
15 Dec - 12:41:10 10° W 12:43:57 26° NW 12:46:45 10° NNE daylight
15 Dec - 19:13:48 10° N 19:16:08 18° NE 19:18:28 10° E visible
15 Dec - 20:49:42 10° WNW 20:52:38 30° SW 20:55:34 10° SSE night (unlit)
16 Dec - 11:48:37 10° SW 11:51:48 55° NW 11:55:01 10° NE daylight
16 Dec - 19:57:21 10° NW 20:00:38 74° SW 20:03:54 10° SE visible
